Precipitable_Water
0.76 0.76 0.78 0.80 0.78 0.76 0.76 0.76 0.78 0.78 0.80 0.82 0.82 0.82 0.82 0.84 0.84 0.84 0.82 0.82 0.82 0.82 0.80 0.80 0.80 0.78 0.76 0.76 0.78 0.78 0.78 0.76 0.74 0.74 0.74 0.72 0.72 0.72 0.72 0.70 0.70 0.70 0.70 0.68 0.68 0.68 0.68 0.64 0.64 0.62 0.58 0.58 0.58 0.56 0.54 0.54 0.54 0.54 0.52 0.50 0.50 0.48 0.48 0.50 0.48 0.48 0.48 0.46 0.46 0.48 0.48 0.44 0.44 0.44 0.40 0.40 0.42 0.42 0.38 0.40 0.38 0.38 0.40 0.38 0.38 0.38
0.74 0.76 0.76 0.78 0.76 0.74 0.74 0.74 0.76 0.76 0.76 0.78 0.80 0.80 0.80 0.82 0.82 0.82 0.80 0.80 0.80 0.80 0.76 0.76 0.76 0.74 0.70 0.70 0.72 0.72 0.72 0.70 0.70 0.70 0.70 0.70 0.70 0.70 0.70 0.68 0.68 0.68 0.68 0.64 0.64 0.64 0.64 0.60 0.58 0.58 0.56 0.56 0.54 0.54 0.52 0.52 0.52 0.50 0.48 0.48 0.46 0.46 0.46 0.46 0.44 0.42 0.44 0.40 0.40 0.40 0.42 0.38 0.36 0.36 0.34 0.34 0.36 0.36 0.34 0.34 0.34 0.34 0.36 0.34 0.36 0.36
0.74 0.74 0.74 0.74 0.74 0.74 0.72 0.74 0.74 0.76 0.76 0.76 0.78 0.78 0.78 0.78 0.78 0.78 0.76 0.78 0.78 0.78 0.74 0.74 0.72 0.70 0.68 0.66 0.66 0.68 0.68 0.68 0.68 0.68 0.68 0.68 0.68 0.68 0.68 0.66 0.64 0.64 0.64 0.62 0.60 0.60 0.60 0.56 0.56 0.56 0.54 0.54 0.54 0.52 0.50 0.50 0.50 0.48 0.46 0.46 0.44 0.42 0.42 0.42 0.40 0.38 0.38 0.36 0.36 0.34 0.36 0.32 0.32 0.32 0.30 0.30 0.32 0.32 0.30 0.32 0.32 0.32 0.32 0.32 0.34 0.34
0.72 0.72 0.72 0.72 0.74 0.74 0.72 0.74 0.74 0.76 0.76 0.76 0.76 0.76 0.76 0.76 0.76 0.76 0.74 0.74 0.74 0.74 0.72 0.72 0.70 0.70 0.68 0.66 0.66 0.66 0.66 0.66 0.66 0.66 0.66 0.66 0.64 0.64 0.64 0.62 0.62 0.62 0.60 0.58 0.58 0.56 0.56 0.54 0.54 0.52 0.50 0.50 0.50 0.48 0.44 0.44 0.46 0.44 0.40 0.40 0.40 0.38 0.38 0.38 0.36 0.34 0.34 0.34 0.32 0.32 0.32 0.30 0.30 0.30 0.30 0.30 0.30 0.30 0.30 0.30 0.32 0.32 0.32 0.32 0.32 0.34
0.70 0.70 0.70 0.72 0.72 0.72 0.72 0.74 0.74 0.74 0.76 0.76 0.76 0.76 0.76 0.74 0.74 0.72 0.72 0.72 0.72 0.72 0.70 0.70 0.70 0.68 0.68 0.66 0.66 0.64 0.64 0.64 0.64 0.64 0.64 0.62 0.62 0.62 0.62 0.56 0.56 0.56 0.58 0.54 0.52 0.52 0.54 0.50 0.50 0.48 0.44 0.44 0.44 0.44 0.40 0.40 0.40 0.38 0.36 0.36 0.36 0.36 0.32 0.32 0.32 0.30 0.30 0.32 0.30 0.30 0.30 0.30 0.30 0.30 0.30 0.30 0.30 0.30 0.30 0.30 0.30 0.30 0.32 0.32 0.32 0.32
0.68 0.70 0.70 0.70 0.70 0.70 0.72 0.72 0.72 0.74 0.74 0.74 0.74 0.74 0.74 0.74 0.72 0.70 0.70 0.70 0.70 0.70 0.68 0.68 0.68 0.68 0.68 0.66 0.66 0.66 0.64 0.64 0.64 0.64 0.64 0.58 0.56 0.54 0.54 0.48 0.48 0.48 0.50 0.46 0.46 0.46 0.48 0.44 0.44 0.44 0.42 0.40 0.38 0.38 0.34 0.34 0.34 0.34 0.30 0.30 0.30 0.30 0.28 0.28 0.28 0.28 0.28 0.28 0.28 0.28 0.30 0.28 0.28 0.30 0.30 0.28 0.30 0.30 0.30 0.30 0.30 0.30 0.30 0.30 0.32 0.32
0.66 0.68 0.68 0.68 0.70 0.70 0.72 0.72 0.72 0.72 0.72 0.72 0.70 0.70 0.72 0.72 0.70 0.68 0.68 0.68 0.68 0.68 0.68 0.68 0.68 0.68 0.66 0.66 0.64 0.64 0.64 0.60 0.58 0.58 0.58 0.50 0.48 0.48 0.46 0.42 0.42 0.42 0.44 0.42 0.42 0.42 0.42 0.40 0.40 0.38 0.38 0.34 0.34 0.32 0.30 0.30 0.30 0.30 0.26 0.28 0.28 0.28 0.26 0.26 0.26 0.26 0.28 0.28 0.28 0.28 0.28 0.28 0.28 0.28 0.28 0.28 0.28 0.28 0.28 0.30 0.30 0.30 0.30 0.30 0.30 0.32
0.66 0.66 0.66 0.66 0.68 0.68 0.70 0.70 0.70 0.70 0.70 0.70 0.68 0.68 0.68 0.68 0.68 0.66 0.68 0.68 0.68 0.68 0.66 0.66 0.66 0.66 0.62 0.62 0.62 0.62 0.60 0.54 0.52 0.50 0.50 0.46 0.44 0.42 0.42 0.38 0.38 0.38 0.40 0.38 0.38 0.38 0.38 0.34 0.34 0.34 0.34 0.30 0.30 0.28 0.26 0.26 0.26 0.26 0.26 0.26 0.26 0.26 0.26 0.26 0.26 0.26 0.26 0.26 0.28 0.28 0.28 0.28 0.28 0.28 0.28 0.28 0.28 0.28 0.30 0.30 0.30 0.30 0.30 0.30 0.32 0.32
0.64 0.64 0.64 0.64 0.66 0.66 0.66 0.66 0.68 0.70 0.70 0.70 0.66 0.64 0.64 0.64 0.64 0.64 0.64 0.64 0.66 0.64 0.62 0.62 0.62 0.60 0.56 0.56 0.56 0.56 0.54 0.50 0.48 0.46 0.46 0.42 0.40 0.40 0.38 0.34 0.34 0.36 0.36 0.32 0.32 0.32 0.32 0.28 0.28 0.28 0.28 0.26 0.26 0.26 0.24 0.24 0.24 0.24 0.24 0.24 0.24 0.24 0.26 0.26 0.26 0.26 0.26 0.26 0.28 0.28 0.28 0.28 0.28 0.28 0.28 0.28 0.30 0.30 0.30 0.30 0.30 0.30 0.30 0.32 0.32 0.32
0.62 0.62 0.62 0.64 0.64 0.64 0.64 0.64 0.66 0.68 0.70 0.68 0.66 0.66 0.64 0.62 0.60 0.58 0.58 0.60 0.60 0.60 0.58 0.58 0.56 0.54 0.50 0.50 0.50 0.50 0.48 0.44 0.42 0.42 0.42 0.36 0.34 0.34 0.32 0.28 0.28 0.28 0.30 0.26 0.26 0.26 0.28 0.26 0.24 0.24 0.26 0.24 0.24 0.24 0.24 0.24 0.24 0.24 0.24 0.24 0.24 0.24 0.26 0.26 0.26 0.26 0.26 0.26 0.28 0.28 0.28 0.28 0.28 0.28 0.28 0.30 0.30 0.30 0.30 0.30 0.30 0.30 0.30 0.30 0.32 0.32
0.60 0.60 0.60 0.62 0.62 0.64 0.64 0.64 0.64 0.66 0.68 0.66 0.64 0.62 0.62 0.60 0.58 0.56 0.54 0.54 0.56 0.56 0.52 0.52 0.52 0.48 0.42 0.42 0.42 0.42 0.42 0.36 0.34 0.34 0.34 0.28 0.26 0.26 0.26 0.24 0.22 0.24 0.24 0.22 0.22 0.22 0.24 0.22 0.22 0.22 0.24 0.22 0.24 0.24 0.22 0.22 0.24 0.24 0.24 0.24 0.24 0.24 0.26 0.26 0.26 0.26 0.26 0.28 0.28 0.28 0.28 0.28 0.28 0.30 0.30 0.30 0.30 0.30 0.30 0.30 0.30 0.30 0.30 0.30 0.30 0.32
0.60 0.60 0.60 0.60 0.60 0.62 0.62 0.62 0.62 0.64 0.64 0.64 0.60 0.56 0.58 0.58 0.56 0.52 0.50 0.50 0.50 0.48 0.42 0.44 0.44 0.40 0.34 0.34 0.34 0.34 0.34 0.28 0.24 0.24 0.26 0.22 0.21 0.21 0.21 0.21 0.21 0.21 0.22 0.21 0.21 0.21 0.22 0.21 0.21 0.22 0.22 0.22 0.22 0.22 0.22 0.22 0.22 0.24 0.24 0.24 0.24 0.26 0.26 0.26 0.26 0.26 0.28 0.28 0.28 0.28 0.28 0.28 0.28 0.30 0.30 0.30 0.30 0.30 0.30 0.30 0.30 0.30 0.30 0.30 0.30 0.30
0.60 0.60 0.60 0.60 0.60 0.60 0.60 0.58 0.58 0.58 0.58 0.54 0.50 0.48 0.50 0.52 0.48 0.42 0.42 0.42 0.42 0.40 0.32 0.32 0.32 0.30 0.26 0.26 0.26 0.26 0.26 0.21 0.21 0.21 0.21 0.19 0.19 0.19 0.19 0.19 0.19 0.19 0.21 0.21 0.21 0.21 0.21 0.21 0.21 0.21 0.22 0.22 0.22 0.22 0.22 0.22 0.24 0.24 0.24 0.24 0.26 0.26 0.26 0.26 0.26 0.28 0.28 0.28 0.28 0.28 0.28 0.28 0.28 0.30 0.30 0.30 0.30 0.30 0.30 0.30 0.30 0.30 0.30 0.30 0.30 0.32
0.60 0.58 0.58 0.58 0.58 0.56 0.54 0.52 0.52 0.52 0.52 0.44 0.42 0.42 0.42 0.42 0.36 0.32 0.30 0.30 0.32 0.30 0.24 0.24 0.24 0.22 0.21 0.22 0.22 0.22 0.21 0.19 0.17 0.17 0.17 0.17 0.17 0.19 0.19 0.19 0.19 0.19 0.19 0.19 0.19 0.19 0.21 0.21 0.21 0.21 0.21 0.22 0.22 0.22 0.22 0.24 0.24 0.24 0.26 0.26 0.26 0.26 0.26 0.28 0.28 0.28 0.28 0.28 0.28 0.28 0.28 0.28 0.30 0.30 0.30 0.30 0.30 0.30 0.30 0.30 0.30 0.30 0.30 0.30 0.30 0.30
0.56 0.52 0.52 0.52 0.52 0.50 0.44 0.44 0.42 0.42 0.42 0.34 0.32 0.32 0.32 0.32 0.28 0.22 0.22 0.22 0.22 0.22 0.21 0.19 0.21 0.19 0.19 0.19 0.21 0.21 0.19 0.17 0.15 0.15 0.15 0.15 0.17 0.19 0.19 0.19 0.19 0.19 0.19 0.19 0.19 0.19 0.21 0.21 0.21 0.21 0.22 0.22 0.22 0.22 0.22 0.24 0.24 0.24 0.26 0.26 0.26 0.26 0.28 0.28 0.28 0.28 0.28 0.28 0.28 0.28 0.30 0.30 0.30 0.30 0.30 0.30 0.30 0.30 0.30 0.32 0.32 0.32 0.32 0.32 0.32 0.32
0.46 0.40 0.40 0.40 0.40 0.38 0.28 0.30 0.30 0.30 0.30 0.24 0.22 0.22 0.22 0.22 0.21 0.21 0.19 0.19 0.19 0.19 0.19 0.17 0.17 0.17 0.17 0.19 0.19 0.19 0.17 0.15 0.15 0.13 0.13 0.15 0.17 0.19 0.21 0.19 0.19 0.19 0.19 0.19 0.19 0.21 0.21 0.22 0.22 0.22 0.22 0.22 0.22 0.24 0.24 0.24 0.24 0.26 0.26 0.26 0.26 0.26 0.28 0.28 0.28 0.28 0.28 0.28 0.30 0.30 0.30 0.30 0.30 0.30 0.30 0.30 0.30 0.30 0.32 0.32 0.32 0.32 0.32 0.32 0.32 0.32
0.30 0.24 0.24 0.24 0.26 0.24 0.21 0.21 0.21 0.21 0.21 0.21 0.21 0.21 0.21 0.21 0.19 0.19 0.19 0.19 0.19 0.19 0.17 0.15 0.15 0.13 0.13 0.13 0.15 0.17 0.17 0.15 0.15 0.13 0.13 0.15 0.17 0.21 0.21 0.19 0.19 0.19 0.19 0.19 0.21 0.21 0.21 0.22 0.22 0.22 0.22 0.22 0.22 0.24 0.24 0.24 0.24 0.26 0.26 0.26 0.26 0.28 0.28 0.28 0.28 0.28 0.30 0.30 0.30 0.30 0.30 0.30 0.30 0.30 0.30 0.30 0.30 0.30 0.32 0.32 0.32 0.32 0.32 0.32 0.32 0.32
0.21 0.19 0.19 0.19 0.19 0.19 0.21 0.21 0.21 0.21 0.21 0.21 0.21 0.21 0.21 0.21 0.19 0.19 0.19 0.17 0.17 0.17 0.15 0.15 0.13 0.13 0.11 0.11 0.13 0.15 0.17 0.17 0.15 0.15 0.15 0.15 0.15 0.19 0.21 0.21 0.19 0.19 0.19 0.21 0.21 0.21 0.22 0.22 0.22 0.22 0.22 0.22 0.24 0.24 0.24 0.24 0.24 0.26 0.26 0.26 0.26 0.28 0.28 0.28 0.28 0.30 0.30 0.30 0.30 0.30 0.30 0.30 0.30 0.30 0.30 0.30 0.30 0.30 0.30 0.32 0.32 0.32 0.32 0.32 0.32 0.32
0.19 0.19 0.19 0.19 0.19 0.19 0.19 0.21 0.21 0.21 0.21 0.19 0.19 0.19 0.19 0.19 0.19 0.17 0.17 0.17 0.17 0.15 0.15 0.13 0.13 0.13 0.13 0.13 0.15 0.17 0.17 0.17 0.17 0.15 0.15 0.15 0.17 0.19 0.21 0.21 0.21 0.19 0.19 0.21 0.21 0.21 0.22 0.22 0.22 0.22 0.22 0.22 0.24 0.24 0.24 0.24 0.26 0.26 0.26 0.26 0.28 0.28 0.28 0.30 0.30 0.30 0.30 0.30 0.30 0.30 0.30 0.30 0.30 0.32 0.32 0.32 0.32 0.32 0.32 0.32 0.32 0.32 0.32 0.34 0.34 0.34
0.19 0.19 0.19 0.19 0.19 0.19 0.19 0.19 0.19 0.21 0.19 0.19 0.19 0.19 0.17 0.19 0.17 0.17 0.17 0.17 0.15 0.15 0.15 0.15 0.13 0.13 0.13 0.13 0.15 0.17 0.19 0.17 0.17 0.15 0.15 0.15 0.17 0.19 0.21 0.21 0.19 0.19 0.19 0.21 0.21 0.22 0.22 0.22 0.22 0.22 0.22 0.22 0.24 0.24 0.24 0.24 0.26 0.26 0.26 0.28 0.28 0.28 0.30 0.30 0.30 0.30 0.30 0.30 0.30 0.30 0.30 0.30 0.32 0.32 0.32 0.32 0.32 0.32 0.32 0.32 0.32 0.34 0.34 0.34 0.34 0.34
0.19 0.19 0.19 0.19 0.19 0.19 0.19 0.19 0.21 0.21 0.21 0.21 0.19 0.19 0.17 0.17 0.17 0.15 0.17 0.15 0.15 0.15 0.15 0.15 0.13 0.13 0.15 0.15 0.15 0.17 0.19 0.19 0.17 0.15 0.15 0.15 0.17 0.19 0.21 0.21 0.21 0.19 0.19 0.21 0.21 0.22 0.22 0.22 0.22 0.22 0.22 0.22 0.24 0.24 0.24 0.26 0.26 0.26 0.26 0.28 0.28 0.28 0.30 0.30 0.30 0.30 0.30 0.30 0.30 0.30 0.30 0.30 0.30 0.30 0.30 0.32 0.32 0.32 0.32 0.32 0.32 0.32 0.34 0.32 0.32 0.32
0.19 0.19 0.21 0.21 0.19 0.19 0.19 0.19 0.21 0.21 0.21 0.19 0.19 0.17 0.17 0.17 0.17 0.15 0.15 0.15 0.15 0.15 0.15 0.15 0.15 0.15 0.17 0.15 0.17 0.17 0.19 0.19 0.17 0.17 0.15 0.15 0.15 0.17 0.19 0.21 0.21 0.21 0.19 0.19 0.21 0.21 0.22 0.22 0.22 0.22 0.22 0.24 0.24 0.24 0.24 0.26 0.26 0.26 0.26 0.28 0.28 0.28 0.30 0.30 0.30 0.30 0.30 0.30 0.30 0.30 0.30 0.30 0.30 0.30 0.32 0.32 0.32 0.32 0.32 0.32 0.32 0.32 0.32 0.32 0.32 0.32
0.19 0.19 0.19 0.19 0.19 0.19 0.19 0.19 0.21 0.21 0.21 0.19 0.19 0.17 0.17 0.17 0.17 0.17 0.15 0.15 0.15 0.15 0.15 0.15 0.15 0.17 0.17 0.17 0.17 0.17 0.19 0.19 0.19 0.17 0.17 0.15 0.17 0.17 0.21 0.21 0.21 0.19 0.19 0.21 0.21 0.21 0.22 0.22 0.22 0.22 0.22 0.24 0.24 0.24 0.24 0.26 0.26 0.26 0.26 0.28 0.28 0.28 0.30 0.30 0.30 0.30 0.30 0.30 0.30 0.30 0.30 0.30 0.30 0.32 0.32 0.32 0.32 0.32 0.32 0.32 0.32 0.32 0.32 0.32 0.32 0.32
0.21 0.21 0.19 0.19 0.19 0.21 0.21 0.21 0.21 0.21 0.21 0.19 0.19 0.19 0.19 0.17 0.17 0.17 0.17 0.17 0.17 0.17 0.17 0.17 0.17 0.15 0.13 0.15 0.15 0.17 0.17 0.19 0.21 0.21 0.19 0.17 0.17 0.19 0.21 0.21 0.19 0.19 0.19 0.21 0.21 0.22 0.22 0.22 0.22 0.22 0.24 0.24 0.24 0.24 0.26 0.26 0.26 0.28 0.28 0.28 0.28 0.28 0.30 0.30 0.30 0.30 0.30 0.30 0.30 0.30 0.30 0.30 0.30 0.32 0.32 0.32 0.32 0.32 0.32 0.32 0.32 0.32 0.32 0.32 0.32 0.34
0.21 0.21 0.21 0.21 0.21 0.21 0.22 0.21 0.21 0.21 0.21 0.21 0.21 0.21 0.21 0.19 0.19 0.19 0.19 0.19 0.17 0.17 0.15 0.15 0.13 0.13 0.13 0.13 0.15 0.17 0.19 0.21 0.21 0.21 0.19 0.19 0.19 0.19 0.19 0.21 0.21 0.19 0.19 0.21 0.21 0.22 0.22 0.22 0.22 0.24 0.24 0.24 0.24 0.26 0.26 0.26 0.28 0.28 0.28 0.28 0.28 0.30 0.30 0.30 0.30 0.30 0.30 0.30 0.30 0.30 0.30 0.30 0.32 0.32 0.32 0.32 0.32 0.32 0.32 0.32 0.32 0.32 0.32 0.32 0.32 0.32
0.22 0.22 0.22 0.22 0.22 0.22 0.22 0.22 0.22 0.22 0.22 0.21 0.21 0.21 0.21 0.21 0.19 0.19 0.19 0.19 0.17 0.17 0.15 0.13 0.13 0.13 0.13 0.15 0.15 0.17 0.19 0.21 0.21 0.21 0.19 0.19 0.19 0.19 0.21 0.21 0.21 0.21 0.19 0.21 0.22 0.22 0.22 0.22 0.22 0.22 0.24 0.24 0.24 0.26 0.26 0.26 0.26 0.28 0.28 0.28 0.28 0.28 0.30 0.28 0.28 0.30 0.30 0.30 0.30 0.30 0.30 0.30 0.30 0.32 0.32 0.32 0.32 0.32 0.32 0.32 0.32 0.32 0.32 0.32 0.32 0.32
0.22 0.22 0.22 0.22 0.22 0.22 0.22 0.22 0.22 0.22 0.22 0.21 0.21 0.21 0.21 0.21 0.19 0.17 0.17 0.17 0.17 0.17 0.15 0.13 0.13 0.13 0.13 0.15 0.15 0.17 0.19 0.21 0.22 0.22 0.21 0.21 0.19 0.19 0.21 0.21 0.21 0.21 0.21 0.21 0.22 0.22 0.22 0.22 0.22 0.22 0.24 0.24 0.24 0.26 0.26 0.26 0.28 0.28 0.28 0.28 0.28 0.28 0.28 0.28 0.28 0.30 0.30 0.30 0.30 0.30 0.30 0.32 0.32 0.32 0.32 0.32 0.32 0.32 0.32 0.32 0.32 0.32 0.32 0.32 0.32 0.32
0.21 0.21 0.21 0.21 0.21 0.21 0.21 0.21 0.21 0.21 0.21 0.21 0.19 0.21 0.21 0.21 0.17 0.15 0.15 0.17 0.17 0.15 0.15 0.13 0.13 0.13 0.15 0.15 0.17 0.19 0.21 0.21 0.21 0.22 0.22 0.22 0.21 0.19 0.19 0.21 0.21 0.21 0.21 0.21 0.21 0.22 0.22 0.22 0.22 0.22 0.24 0.24 0.26 0.26 0.26 0.28 0.28 0.28 0.28 0.28 0.28 0.28 0.28 0.30 0.30 0.30 0.30 0.30 0.30 0.30 0.32 0.32 0.32 0.32 0.32 0.32 0.32 0.32 0.32 0.32 0.32 0.32 0.32 0.32 0.30 0.30
0.21 0.21 0.21 0.21 0.21 0.19 0.19 0.19 0.19 0.19 0.19 0.19 0.19 0.19 0.19 0.19 0.17 0.15 0.15 0.17 0.17 0.15 0.15 0.15 0.15 0.15 0.17 0.17 0.19 0.19 0.19 0.21 0.22 0.22 0.22 0.21 0.19 0.19 0.21 0.21 0.21 0.21 0.21 0.21 0.21 0.21 0.22 0.22 0.22 0.22 0.24 0.24 0.26 0.26 0.26 0.26 0.28 0.28 0.28 0.28 0.28 0.28 0.28 0.30 0.30 0.30 0.30 0.30 0.30 0.32 0.32 0.32 0.32 0.32 0.32 0.32 0.32 0.32 0.32 0.32 0.32 0.32 0.32 0.32 0.30 0.30
0.19 0.19 0.19 0.21 0.19 0.19 0.17 0.17 0.17 0.19 0.17 0.17 0.17 0.19 0.19 0.17 0.17 0.17 0.17 0.17 0.17 0.15 0.15 0.15 0.15 0.17 0.17 0.17 0.17 0.19 0.17 0.19 0.22 0.22 0.24 0.21 0.21 0.19 0.21 0.21 0.21 0.21 0.22 0.21 0.19 0.19 0.21 0.22 0.22 0.24 0.24 0.24 0.26 0.26 0.26 0.26 0.28 0.28 0.28 0.28 0.28 0.28 0.30 0.30 0.30 0.30 0.30 0.30 0.32 0.32 0.32 0.32 0.32 0.32 0.32 0.32 0.32 0.32 0.32 0.32 0.32 0.32 0.30 0.30 0.30 0.30
0.17 0.17 0.17 0.17 0.17 0.17 0.17 0.17 0.17 0.17 0.17 0.17 0.17 0.17 0.17 0.17 0.17 0.17 0.17 0.17 0.17 0.17 0.17 0.17 0.17 0.17 0.19 0.17 0.17 0.17 0.17 0.19 0.22 0.24 0.24 0.22 0.21 0.21 0.21 0.21 0.21 0.22 0.22 0.22 0.21 0.19 0.19 0.21 0.22 0.24 0.24 0.24 0.26 0.26 0.26 0.28 0.28 0.28 0.28 0.28 0.28 0.28 0.30 0.30 0.30 0.30 0.30 0.30 0.30 0.32 0.32 0.32 0.32 0.32 0.32 0.32 0.32 0.32 0.32 0.32 0.32 0.32 0.30 0.30 0.30 0.28
0.17 0.17 0.17 0.17 0.15 0.15 0.15 0.15 0.15 0.15 0.15 0.15 0.17 0.17 0.17 0.17 0.17 0.17 0.17 0.17 0.17 0.19 0.17 0.17 0.17 0.19 0.19 0.19 0.17 0.17 0.19 0.21 0.22 0.24 0.24 0.22 0.21 0.21 0.21 0.21 0.21 0.22 0.22 0.22 0.21 0.19 0.17 0.19 0.21 0.22 0.24 0.24 0.26 0.26 0.26 0.28 0.28 0.28 0.28 0.28 0.28 0.28 0.30 0.30 0.30 0.30 0.30 0.30 0.30 0.32 0.32 0.32 0.32 0.32 0.32 0.32 0.32 0.32 0.32 0.32 0.32 0.30 0.30 0.30 0.28 0.28
0.17 0.17 0.17 0.15 0.15 0.15 0.15 0.15 0.15 0.15 0.15 0.15 0.17 0.17 0.17 0.17 0.19 0.19 0.19 0.19 0.19 0.21 0.19 0.19 0.19 0.19 0.19 0.19 0.19 0.19 0.21 0.22 0.22 0.24 0.24 0.24 0.22 0.22 0.22 0.22 0.22 0.22 0.22 0.22 0.22 0.21 0.19 0.21 0.22 0.22 0.24 0.24 0.26 0.26 0.26 0.28 0.28 0.28 0.28 0.28 0.28 0.28 0.28 0.30 0.30 0.30 0.30 0.30 0.30 0.32 0.32 0.32 0.32 0.32 0.32 0.32 0.32 0.32 0.30 0.32 0.30 0.30 0.30 0.30 0.28 0.28
0.17 0.17 0.15 0.15 0.15 0.15 0.15 0.15 0.15 0.15 0.17 0.17 0.17 0.17 0.17 0.19 0.19 0.21 0.21 0.21 0.21 0.22 0.21 0.21 0.21 0.19 0.19 0.19 0.19 0.19 0.21 0.22 0.24 0.24 0.26 0.24 0.22 0.22 0.22 0.22 0.22 0.22 0.22 0.22 0.22 0.22 0.21 0.22 0.22 0.22 0.22 0.24 0.24 0.26 0.26 0.28 0.28 0.28 0.28 0.28 0.28 0.28 0.28 0.30 0.30 0.30 0.30 0.30 0.32 0.32 0.32 0.32 0.32 0.32 0.32 0.32 0.32 0.32 0.30 0.30 0.30 0.30 0.30 0.30 0.30 0.30
0.17 0.17 0.15 0.15 0.15 0.13 0.13 0.13 0.15 0.15 0.17 0.17 0.17 0.19 0.19 0.19 0.21 0.21 0.21 0.22 0.22 0.22 0.22 0.22 0.21 0.21 0.21 0.21 0.19 0.21 0.21 0.22 0.24 0.26 0.26 0.24 0.24 0.22 0.22 0.22 0.22 0.22 0.22 0.22 0.22 0.21 0.21 0.22 0.22 0.22 0.22 0.22 0.24 0.26 0.26 0.26 0.28 0.28 0.30 0.30 0.30 0.30 0.30 0.30 0.32 0.30 0.30 0.32 0.32 0.32 0.32 0.32 0.32 0.32 0.30 0.30 0.30 0.30 0.30 0.30 0.30 0.30 0.30 0.30 0.30 0.30
0.15 0.15 0.15 0.15 0.13 0.13 0.13 0.13 0.15 0.15 0.17 0.17 0.17 0.17 0.19 0.19 0.21 0.21 0.21 0.21 0.22 0.22 0.22 0.22 0.22 0.22 0.22 0.22 0.21 0.21 0.22 0.24 0.26 0.26 0.26 0.24 0.24 0.22 0.22 0.22 0.22 0.22 0.22 0.22 0.22 0.22 0.21 0.22 0.22 0.22 0.22 0.22 0.22 0.24 0.24 0.26 0.28 0.28 0.30 0.30 0.30 0.30 0.32 0.32 0.32 0.32 0.32 0.30 0.30 0.30 0.30 0.30 0.30 0.30 0.30 0.30 0.30 0.30 0.30 0.30 0.30 0.30 0.30 0.30 0.30 0.30
0.15 0.15 0.13 0.13 0.13 0.13 0.13 0.13 0.15 0.15 0.15 0.17 0.17 0.19 0.19 0.21 0.21 0.21 0.21 0.22 0.22 0.22 0.22 0.22 0.22 0.24 0.24 0.24 0.24 0.22 0.24 0.24 0.26 0.26 0.26 0.26 0.26 0.24 0.22 0.24 0.24 0.24 0.24 0.22 0.22 0.22 0.22 0.22 0.22 0.22 0.22 0.22 0.22 0.22 0.24 0.26 0.28 0.28 0.30 0.30 0.30 0.32 0.32 0.32 0.32 0.32 0.32 0.30 0.30 0.30 0.30 0.30 0.30 0.30 0.30 0.30 0.30 0.30 0.30 0.30 0.30 0.30 0.30 0.30 0.30 0.30
0.13 0.13 0.13 0.13 0.13 0.13 0.13 0.13 0.15 0.15 0.17 0.17 0.17 0.19 0.19 0.21 0.21 0.21 0.22 0.22 0.22 0.22 0.22 0.22 0.24 0.24 0.24 0.24 0.24 0.24 0.26 0.26 0.26 0.26 0.26 0.26 0.26 0.26 0.24 0.24 0.24 0.24 0.24 0.24 0.24 0.22 0.22 0.22 0.21 0.21 0.22 0.22 0.24 0.24 0.26 0.26 0.28 0.28 0.28 0.30 0.30 0.32 0.32 0.32 0.32 0.32 0.32 0.30 0.30 0.30 0.30 0.30 0.30 0.30 0.30 0.30 0.30 0.30 0.28 0.28 0.28 0.28 0.28 0.28 0.28 0.28
0.13 0.13 0.13 0.13 0.13 0.13 0.13 0.13 0.15 0.17 0.19 0.19 0.19 0.21 0.21 0.21 0.22 0.22 0.22 0.22 0.22 0.22 0.22 0.22 0.24 0.24 0.24 0.24 0.26 0.26 0.26 0.26 0.26 0.26 0.26 0.26 0.26 0.26 0.24 0.24 0.24 0.26 0.26 0.26 0.24 0.24 0.22 0.22 0.22 0.22 0.22 0.22 0.22 0.24 0.26 0.26 0.26 0.28 0.28 0.28 0.30 0.30 0.30 0.32 0.32 0.32 0.32 0.30 0.30 0.30 0.30 0.30 0.30 0.30 0.30 0.28 0.28 0.28 0.26 0.26 0.28 0.28 0.28 0.28 0.28 0.28
0.13 0.13 0.13 0.13 0.15 0.15 0.15 0.15 0.15 0.17 0.19 0.19 0.21 0.21 0.21 0.21 0.21 0.22 0.22 0.22 0.22 0.22 0.24 0.24 0.24 0.24 0.24 0.24 0.26 0.26 0.26 0.26 0.26 0.26 0.26 0.26 0.26 0.26 0.26 0.26 0.26 0.26 0.26 0.26 0.26 0.26 0.24 0.24 0.24 0.24 0.24 0.24 0.24 0.24 0.26 0.26 0.26 0.28 0.28 0.28 0.28 0.28 0.30 0.30 0.32 0.32 0.32 0.30 0.30 0.30 0.30 0.28 0.28 0.28 0.28 0.28 0.28 0.28 0.28 0.26 0.26 0.26 0.28 0.26 0.26 0.26
0.13 0.13 0.13 0.15 0.15 0.15 0.15 0.17 0.17 0.19 0.21 0.21 0.21 0.21 0.21 0.21 0.21 0.21 0.21 0.22 0.22 0.22 0.22 0.24 0.24 0.24 0.24 0.24 0.26 0.26 0.26 0.26 0.26 0.28 0.28 0.28 0.28 0.28 0.26 0.28 0.26 0.26 0.26 0.26 0.26 0.26 0.26 0.24 0.24 0.26 0.26 0.24 0.24 0.26 0.26 0.26 0.28 0.28 0.28 0.26 0.26 0.28 0.30 0.30 0.30 0.30 0.30 0.30 0.28 0.28 0.28 0.28 0.28 0.28 0.28 0.28 0.28 0.28 0.28 0.28 0.28 0.26 0.28 0.28 0.26 0.26
0.15 0.13 0.13 0.15 0.15 0.15 0.17 0.17 0.19 0.19 0.21 0.21 0.21 0.21 0.21 0.21 0.21 0.21 0.21 0.21 0.21 0.22 0.22 0.22 0.22 0.22 0.22 0.24 0.24 0.26 0.26 0.26 0.28 0.28 0.28 0.28 0.28 0.28 0.28 0.28 0.28 0.28 0.26 0.26 0.26 0.26 0.26 0.26 0.26 0.26 0.26 0.26 0.26 0.26 0.26 0.26 0.26 0.28 0.28 0.28 0.28 0.28 0.28 0.30 0.30 0.30 0.30 0.28 0.28 0.28 0.28 0.28 0.26 0.26 0.26 0.28 0.28 0.28 0.28 0.28 0.28 0.28 0.28 0.28 0.28 0.26
0.15 0.15 0.15 0.15 0.17 0.17 0.19 0.19 0.19 0.21 0.21 0.21 0.21 0.21 0.21 0.21 0.21 0.21 0.21 0.21 0.21 0.21 0.22 0.22 0.22 0.22 0.22 0.22 0.22 0.24 0.24 0.26 0.26 0.28 0.28 0.28 0.28 0.28 0.28 0.28 0.28 0.28 0.28 0.28 0.26 0.26 0.28 0.28 0.28 0.28 0.28 0.28 0.26 0.26 0.26 0.26 0.26 0.28 0.28 0.28 0.26 0.26 0.26 0.26 0.28 0.28 0.28 0.28 0.28 0.28 0.28 0.28 0.28 0.28 0.28 0.28 0.28 0.28 0.28 0.28 0.28 0.28 0.28 0.28 0.28 0.26
0.15 0.15 0.15 0.15 0.17 0.17 0.19 0.19 0.19 0.19 0.19 0.19 0.19 0.19 0.21 0.21 0.21 0.21 0.21 0.21 0.21 0.21 0.21 0.22 0.22 0.22 0.22 0.22 0.22 0.22 0.24 0.26 0.26 0.28 0.28 0.28 0.28 0.28 0.28 0.30 0.30 0.30 0.28 0.28 0.28 0.28 0.28 0.28 0.28 0.28 0.28 0.28 0.28 0.26 0.26 0.26 0.26 0.26 0.28 0.28 0.26 0.26 0.26 0.24 0.26 0.28 0.28 0.28 0.28 0.28 0.28 0.28 0.28 0.28 0.28 0.28 0.28 0.28 0.28 0.28 0.28 0.28 0.28 0.28 0.28 0.26
0.15 0.15 0.15 0.17 0.17 0.17 0.19 0.19 0.19 0.19 0.19 0.19 0.19 0.21 0.21 0.21 0.21 0.21 0.21 0.21 0.21 0.21 0.22 0.22 0.22 0.22 0.21 0.22 0.22 0.22 0.24 0.26 0.26 0.28 0.28 0.28 0.30 0.30 0.30 0.30 0.30 0.30 0.30 0.28 0.28 0.28 0.28 0.28 0.28 0.28 0.28 0.30 0.28 0.28 0.26 0.26 0.26 0.26 0.26 0.26 0.26 0.26 0.26 0.26 0.26 0.26 0.26 0.26 0.26 0.28 0.28 0.28 0.28 0.28 0.26 0.26 0.26 0.28 0.28 0.28 0.28 0.28 0.28 0.28 0.28 0.26
0.15 0.15 0.15 0.17 0.17 0.17 0.19 0.19 0.19 0.19 0.19 0.19 0.19 0.21 0.21 0.21 0.21 0.21 0.21 0.21 0.21 0.21 0.22 0.22 0.22 0.21 0.21 0.22 0.22 0.22 0.24 0.24 0.26 0.26 0.26 0.28 0.28 0.30 0.30 0.30 0.30 0.30 0.30 0.30 0.30 0.30 0.30 0.28 0.28 0.28 0.28 0.28 0.28 0.26 0.26 0.26 0.26 0.26 0.26 0.26 0.26 0.26 0.26 0.28 0.28 0.26 0.26 0.26 0.26 0.28 0.28 0.28 0.28 0.28 0.26 0.26 0.26 0.26 0.28 0.28 0.28 0.28 0.26 0.26 0.26 0.26
0.15 0.15 0.17 0.17 0.17 0.19 0.19 0.19 0.19 0.19 0.19 0.19 0.21 0.21 0.21 0.21 0.21 0.21 0.21 0.21 0.21 0.22 0.22 0.22 0.22 0.22 0.21 0.22 0.22 0.22 0.22 0.22 0.24 0.24 0.26 0.28 0.28 0.28 0.30 0.30 0.30 0.32 0.32 0.30 0.30 0.32 0.30 0.30 0.30 0.30 0.28 0.28 0.26 0.26 0.26 0.26 0.26 0.26 0.26 0.26 0.26 0.26 0.26 0.26 0.26 0.28 0.28 0.28 0.28 0.28 0.28 0.28 0.26 0.26 0.26 0.26 0.26 0.26 0.28 0.28 0.28 0.28 0.28 0.28 0.28 0.26
0.15 0.17 0.17 0.17 0.19 0.19 0.19 0.19 0.19 0.19 0.19 0.19 0.19 0.21 0.21 0.21 0.21 0.21 0.21 0.21 0.22 0.22 0.22 0.22 0.22 0.21 0.22 0.22 0.22 0.22 0.24 0.24 0.24 0.26 0.26 0.28 0.28 0.28 0.30 0.30 0.30 0.32 0.32 0.32 0.32 0.32 0.32 0.32 0.30 0.30 0.30 0.28 0.26 0.26 0.24 0.26 0.26 0.26 0.26 0.26 0.26 0.26 0.26 0.26 0.26 0.28 0.28 0.28 0.28 0.28 0.28 0.28 0.26 0.26 0.26 0.26 0.26 0.26 0.26 0.26 0.28 0.28 0.28 0.28 0.28 0.26
0.17 0.17 0.17 0.19 0.19 0.19 0.19 0.19 0.19 0.19 0.19 0.19 0.21 0.21 0.21 0.21 0.21 0.21 0.21 0.21 0.22 0.22 0.22 0.21 0.21 0.22 0.22 0.22 0.22 0.24 0.24 0.24 0.24 0.26 0.26 0.28 0.28 0.28 0.28 0.30 0.30 0.30 0.30 0.32 0.32 0.30 0.32 0.32 0.32 0.32 0.32 0.30 0.28 0.26 0.26 0.26 0.26 0.26 0.28 0.26 0.26 0.26 0.26 0.26 0.26 0.28 0.28 0.28 0.28 0.28 0.28 0.28 0.28 0.28 0.26 0.26 0.26 0.26 0.26 0.26 0.26 0.28 0.28 0.26 0.26 0.26
0.17 0.19 0.19 0.19 0.19 0.19 0.19 0.19 0.21 0.21 0.21 0.21 0.21 0.21 0.21 0.21 0.21 0.21 0.21 0.21 0.22 0.22 0.22 0.22 0.22 0.22 0.22 0.22 0.22 0.24 0.24 0.24 0.24 0.26 0.26 0.28 0.28 0.28 0.28 0.28 0.28 0.28 0.30 0.30 0.30 0.28 0.30 0.30 0.30 0.30 0.30 0.30 0.30 0.28 0.26 0.26 0.26 0.28 0.26 0.28 0.26 0.26 0.26 0.26 0.26 0.26 0.28 0.28 0.28 0.28 0.28 0.28 0.28 0.28 0.28 0.26 0.26 0.24 0.26 0.24 0.24 0.26 0.26 0.26 0.26 0.26
0.19 0.19 0.19 0.19 0.19 0.19 0.21 0.21 0.21 0.21 0.21 0.21 0.21 0.21 0.21 0.21 0.21 0.21 0.21 0.21 0.22 0.22 0.22 0.22 0.22 0.22 0.22 0.22 0.24 0.24 0.24 0.26 0.26 0.26 0.26 0.28 0.28 0.28 0.28 0.28 0.28 0.28 0.28 0.28 0.26 0.26 0.26 0.26 0.26 0.26 0.26 0.30 0.30 0.30 0.28 0.28 0.26 0.26 0.26 0.26 0.26 0.26 0.26 0.26 0.26 0.26 0.26 0.26 0.26 0.28 0.28 0.28 0.28 0.28 0.28 0.26 0.24 0.24 0.24 0.24 0.24 0.26 0.26 0.26 0.26 0.26
Wind_Speed
25 25 26 27 28 28 27 24 21 19 18 19 21 23 25 27 27 28 27 27 27 26 26 26 26 26 26 26 27 27 27 28 28 28 29 29 30 30 30 30 30 29 29 30 30 30 30 31 31 31 31 31 31 31 32 32 32 33 34 35 35 36 37 38 38 38 38 38 38 37 37 37 37 37 37 37 37 37 37 37 37 37 37 38 38 38
24 24 25 26 28 28 28 27 24 22 20 19 19 20 22 23 24 25 25 25 25 26 26 25 25 25 25 26 26 27 27 28 28 29 29 29 30 30 29 29 29 29 29 29 29 30 30 30 30 30 30 31 31 31 32 32 33 34 35 36 36 37 37 38 38 38 38 37 37 37 37 37 37 37 37 37 37 37 38 38 38 38 38 38 38 39
23 23 24 26 27 27 28 28 26 24 22 20 19 18 19 20 21 22 23 23 24 24 24 24 24 24 25 25 26 26 27 27 28 28 29 29 29 30 30 30 29 29 29 29 30 30 30 30 30 30 31 31 31 32 32 33 34 35 35 36 36 37 37 37 37 36 36 36 36 36 36 36 36 37 37 37 37 37 37 38 38 38 38 39 39 39
23 22 23 24 25 26 26 27 26 26 24 22 20 19 19 19 20 21 22 22 23 23 23 24 24 24 25 25 26 26 27 27 28 28 28 29 29 30 30 30 30 30 30 30 30 30 30 31 31 31 31 32 32 33 33 34 34 35 35 35 35 35 35 35 35 35 35 36 36 36 36 36 36 36 37 37 37 37 37 38 38 38 39 39 39 39
21 21 21 21 22 23 24 25 25 25 24 23 22 21 20 20 21 21 22 22 23 23 23 24 24 25 25 26 26 26 27 27 27 28 28 29 30 31 31 31 31 30 30 30 30 30 31 31 31 32 32 32 33 33 33 34 34 34 34 34 34 34 34 34 35 35 35 35 35 35 36 36 36 36 36 37 37 37 37 38 38 38 39 39 39 39
19 19 19 19 19 20 21 22 23 23 23 23 23 22 22 22 22 22 22 23 23 23 24 24 25 25 25 26 26 26 26 27 27 28 29 29 30 30 31 31 30 30 30 30 31 31 31 32 32 32 33 33 33 33 33 33 33 33 33 33 34 34 34 34 34 34 35 35 35 35 35 36 36 36 36 36 37 37 37 38 38 38 38 39 39 39
17 17 17 17 17 18 18 19 20 21 21 22 22 22 22 22 22 22 22 23 23 23 24 24 25 25 25 25 26 26 27 27 28 28 29 29 30 30 30 30 30 31 31 31 31 31 32 32 32 32 32 32 32 32 33 33 33 33 33 33 34 34 34 34 34 34 34 34 34 35 35 35 35 35 36 36 36 36 37 37 37 38 38 38 38 39
15 15 15 15 15 15 15 16 16 17 19 20 20 21 21 21 21 22 22 22 23 23 23 24 24 24 25 25 26 26 27 27 28 28 29 29 29 30 30 30 30 30 30 30 31 31 31 31 31 31 32 32 32 32 32 33 33 33 33 33 33 33 33 33 33 33 33 34 34 34 34 34 34 35 35 35 35 36 36 36 37 37 37 38 38 38
14 14 14 14 13 13 13 13 14 15 16 18 19 19 20 20 21 21 21 22 22 23 23 23 23 24 24 25 26 26 27 27 28 28 29 29 29 29 29 29 29 29 30 30 30 30 30 31 31 31 31 32 32 32 32 32 32 33 32 32 32 32 32 32 32 32 32 33 33 33 33 33 34 34 34 34 35 35 36 36 36 37 37 37 38 38
13 13 14 14 13 13 13 13 14 15 16 17 18 19 19 20 20 21 21 22 22 22 23 23 23 24 25 25 26 26 27 28 28 28 28 28 28 29 29 29 29 29 29 30 30 30 30 31 31 31 32 32 32 32 32 32 32 32 31 31 31 31 31 31 31 31 31 32 32 32 32 33 33 33 34 34 35 35 36 36 36 37 37 38 38 38
13 14 14 14 14 14 14 15 15 16 16 17 18 19 19 20 20 21 21 22 22 22 23 23 24 25 25 26 26 27 27 27 27 28 28 28 29 29 29 29 29 30 30 30 30 31 31 31 31 31 31 31 31 31 31 31 31 31 30 30 30 30 30 30 31 31 31 31 32 32 32 33 33 33 34 34 35 35 36 36 36 37 37 37 38 38
14 14 15 15 15 15 16 16 16 17 17 17 18 19 20 20 21 21 22 23 23 23 23 24 24 25 25 25 26 26 26 27 27 28 28 29 29 30 30 30 30 30 30 30 30 31 31 31 31 31 31 31 31 30 30 30 30 29 29 29 29 30 30 30 30 31 31 31 32 32 32 33 33 34 34 34 35 35 35 36 36 36 37 37 37 38
14 14 15 15 15 16 16 16 16 17 17 17 18 19 20 20 21 21 22 22 23 23 23 23 24 24 25 25 25 26 27 27 28 29 29 30 30 30 30 30 30 30 30 30 30 30 30 30 30 30 30 30 29 29 29 29 29 29 29 29 29 29 30 30 30 31 31 31 32 32 33 33 33 34 34 34 34 35 35 35 36 36 36 36 37 37
13 13 14 14 14 15 15 15 16 16 17 17 18 19 19 20 20 20 21 21 22 22 22 23 23 24 25 26 26 27 27 28 29 29 30 30 30 30 30 29 29 29 29 30 30 30 30 29 29 29 29 29 28 28 28 28 28 28 28 29 29 29 30 30 31 31 31 32 32 32 33 33 33 33 34 34 34 34 35 35 35 35 35 35 36 36
12 12 12 13 13 14 14 15 15 16 16 17 17 18 18 19 19 20 20 21 22 22 23 24 25 25 26 27 27 28 28 29 29 29 30 30 30 29 29 29 29 29 29 29 29 29 28 28 28 28 28 28 28 28 28 28 28 28 28 29 29 30 30 30 31 31 31 32 32 32 33 33 33 33 33 33 34 34 34 34 34 34 34 34 35 35
12 12 12 12 13 13 14 14 15 15 16 16 17 18 18 19 20 20 21 22 23 24 24 25 26 27 27 28 28 28 28 29 29 29 30 29 29 29 28 28 28 28 28 28 27 27 27 27 27 27 27 27 27 27 27 28 28 28 29 29 29 30 30 30 31 31 31 32 32 32 32 33 33 33 33 33 33 33 33 33 33 33 34 34 34 34
13 13 13 13 14 14 15 15 15 16 17 18 18 19 20 20 21 22 23 23 24 25 25 26 26 27 28 28 28 28 29 29 29 29 29 29 28 28 28 27 27 27 27 26 26 26 26 26 27 27 27 27 27 27 28 28 28 28 29 29 30 30 30 30 31 31 31 31 32 32 32 32 32 33 33 33 33 33 33 33 33 33 33 33 33 34
14 14 14 15 15 16 16 17 17 18 19 19 20 21 22 22 23 23 24 25 25 26 26 27 27 27 28 28 29 29 29 29 29 29 28 28 28 27 27 26 26 26 26 26 26 26 26 26 27 27 27 27 27 28 28 28 29 29 29 30 30 30 30 30 31 31 31 31 31 31 32 32 32 32 32 32 32 33 33 33 33 33 33 33 33 33
15 15 16 16 17 17 18 18 19 20 20 21 21 22 23 23 24 24 25 25 26 26 26 27 27 27 28 28 29 29 29 28 28 28 28 27 27 26 26 25 26 26 26 25 25 26 26 27 27 27 27 28 28 28 28 29 29 29 29 30 30 30 30 30 30 30 30 31 31 31 31 31 31 31 32 32 32 32 32 33 33 33 33 33 33 33
16 17 17 17 18 18 19 20 20 21 21 22 22 23 23 24 25 25 25 26 26 26 26 27 27 27 28 28 28 28 28 28 27 27 27 27 26 26 25 25 25 26 26 25 26 26 27 27 27 28 28 28 28 28 29 29 29 29 30 30 30 30 30 30 30 30 30 30 30 30 30 31 31 31 31 32 32 32 32 32 32 33 33 33 33 33
17 18 18 18 19 19 20 21 21 21 22 22 23 23 24 25 25 25 26 26 26 26 27 27 27 27 27 28 28 28 28 27 27 27 26 26 26 25 24 24 25 25 26 26 26 26 27 27 27 28 28 28 28 29 29 29 29 29 29 29 29 29 29 29 29 29 29 29 30 30 30 30 31 31 31 31 32 32 32 32 33 33 33 33 33 33
18 18 19 19 19 20 20 21 22 22 22 23 23 24 24 25 25 26 26 26 26 27 27 27 27 28 28 28 28 28 27 26 26 26 26 26 26 25 25 25 25 26 26 26 26 26 27 27 27 28 28 28 28 29 29 29 29 29 29 29 29 28 28 28 28 28 29 29 29 29 30 30 30 31 31 31 32 32 32 32 32 33 33 33 33 33
18 19 19 20 20 20 21 21 22 22 23 23 24 24 25 25 25 26 26 26 26 27 27 27 28 28 28 28 28 27 26 25 25 25 25 26 26 26 25 25 26 26 26 26 26 26 27 27 28 28 28 28 29 29 29 29 29 28 28 28 28 28 28 28 28 28 28 29 29 29 29 30 30 30 30 31 31 31 32 32 32 32 32 32 32 33
19 19 20 20 21 21 21 22 22 23 23 24 24 24 25 25 25 25 26 26 26 27 27 27 28 28 28 28 27 26 26 25 25 25 25 26 27 27 26 26 26 26 27 27 27 27 27 27 28 28 28 29 28 28 28 28 28 27 27 27 27 27 27 27 27 28 28 28 29 29 29 29 29 30 30 30 31 31 31 31 31 32 32 32 32 32
20 20 20 21 21 22 22 22 23 23 23 24 24 25 25 25 26 26 26 26 27 27 27 28 28 28 28 27 27 26 25 25 25 25 25 26 27 28 27 27 26 27 27 27 27 27 27 28 28 29 28 28 28 27 27 27 26 26 26 26 26 26 26 26 27 27 28 28 28 28 28 29 29 29 30 30 30 31 31 31 31 31 31 31 31 32
21 21 21 22 22 22 23 23 24 24 24 25 25 25 26 26 26 26 27 27 27 27 28 28 28 28 27 27 26 26 26 25 25 25 26 26 27 28 27 27 27 27 27 28 28 28 28 28 28 28 28 27 27 26 26 25 25 25 25 25 25 26 26 27 27 27 27 28 28 28 28 28 29 29 29 30 30 30 31 31 31 31 31 31 31 31
22 22 22 23 23 23 24 24 25 25 26 26 26 26 26 26 26 27 27 27 27 27 27 27 28 28 27 27 27 26 26 26 26 26 26 27 27 27 27 27 27 27 28 28 28 28 28 28 27 27 26 26 25 25 25 24 24 24 24 25 25 26 26 27 27 27 27 27 27 27 28 28 28 29 29 30 30 30 30 30 30 31 31 31 31 31
23 23 23 24 24 25 25 26 26 26 27 27 27 27 27 27 27 27 27 28 28 28 28 27 27 28 27 27 27 27 27 27 27 27 27 27 27 27 27 27 27 27 28 28 28 28 27 27 26 25 25 24 24 24 23 23 23 24 25 25 26 26 27 27 27 27 27 27 27 27 28 28 28 29 29 30 30 30 30 30 30 30 30 30 30 30
24 24 24 25 25 26 26 27 27 27 28 28 28 28 28 27 27 28 28 28 28 28 28 28 28 28 28 28 28 29 28 28 28 28 27 27 27 27 27 27 27 27 27 27 27 27 26 25 25 24 23 23 23 23 23 23 24 25 25 26 26 26 26 26 26 26 27 27 27 27 28 28 29 29 29 30 30 30 30 30 30 30 29 29 29 29
24 25 25 26 26 27 27 28 28 28 28 28 28 28 28 28 28 28 28 28 28 28 28 28 28 28 28 28 29 29 29 29 28 28 27 27 27 27 27 27 27 27 26 26 26 25 25 24 23 23 22 22 23 23 24 24 25 26 26 26 26 26 26 26 26 27 27 27 27 28 28 28 29 29 29 30 30 30 30 29 29 29 29 29 28 28
25 25 26 26 27 28 28 28 28 28 29 29 29 29 29 28 28 28 28 28 28 28 28 28 28 28 28 28 28 29 29 29 28 28 27 27 27 27 27 27 27 26 25 25 24 24 24 24 23 22 22 23 23 24 25 25 25 26 26 26 26 26 26 26 27 27 27 27 28 28 28 29 29 29 29 29 29 29 29 29 29 29 28 28 28 27
25 26 26 27 27 28 28 28 28 28 29 29 29 29 29 29 29 28 28 28 28 28 28 28 29 29 29 29 29 29 29 29 29 28 28 27 28 27 27 26 26 26 25 24 24 23 23 23 23 23 23 24 24 24 25 25 25 25 26 26 26 26 27 27 27 27 28 28 28 28 29 29 29 29 29 29 29 29 29 29 29 28 28 27 27 26
26 26 26 27 27 28 28 28 28 28 28 29 29 29 29 29 29 29 28 28 28 28 28 29 29 29 29 29 30 30 30 30 30 29 28 28 27 27 27 26 26 26 25 24 24 24 23 24 24 24 24 24 24 24 24 25 25 25 26 26 26 26 27 27 27 28 28 28 28 28 28 29 29 29 29 29 29 29 29 29 29 28 28 27 26 26
26 26 27 27 27 27 27 27 28 28 28 28 29 29 29 29 29 29 29 29 29 29 29 29 29 29 30 30 30 30 30 30 30 29 29 28 27 27 27 26 26 26 25 25 24 24 24 24 24 24 24 24 24 24 24 25 25 26 26 26 26 26 27 27 28 28 28 28 28 28 28 28 28 29 29 29 29 29 29 28 28 28 28 27 26 26
26 27 27 27 27 27 27 27 27 28 28 28 29 29 29 29 29 29 29 29 29 29 29 29 29 29 29 29 30 30 30 30 29 29 28 28 27 27 27 26 26 25 25 25 25 24 24 25 25 25 25 25 25 24 24 25 25 26 26 26 27 27 27 28 28 28 28 28 28 28 28 28 28 28 28 28 28 28 28 28 28 28 28 27 27 26
27 27 27 27 27 27 27 27 28 28 28 28 29 29 29 29 29 29 29 29 29 29 29 29 29 29 29 29 29 30 30 30 30 29 29 28 27 27 27 27 26 25 25 25 25 25 25 25 25 25 25 25 25 25 25 25 25 26 26 27 27 27 28 28 28 28 28 28 28 28 28 28 28 28 28 28 28 29 29 29 28 28 28 28 27 27
27 27 27 27 27 27 27 27 28 28 28 29 29 29 30 30 30 30 30 29 29 29 29 30 30 30 30 30 30 30 30 30 30 30 29 28 28 27 27 27 26 26 25 25 25 25 25 25 26 26 26 26 25 25 25 25 26 26 26 26 27 27 28 28 28 28 28 28 28 28 28 28 28 28 28 28 29 29 29 29 28 28 28 27 27 27
27 27 27 27 27 27 27 28 28 28 29 29 29 30 30 30 30 30 30 30 30 30 30 30 30 30 30 30 30 30 30 30 30 29 29 28 28 27 27 27 26 26 26 26 26 26 26 26 26 26 26 26 26 26 26 26 26 26 27 27 27 27 28 28 28 28 28 28 28 28 28 28 28 28 28 29 29 28 28 28 28 28 28 27 27 27
27 27 27 27 27 27 27 28 28 29 29 29 30 30 30 31 31 30 30 30 30 30 30 30 30 30 30 30 30 30 30 30 29 29 29 28 27 27 27 27 26 26 26 26 26 26 26 26 26 26 26 27 27 27 27 27 27 27 27 28 28 28 28 28 28 28 28 28 28 28 28 28 28 28 28 28 28 28 28 27 28 27 27 27 27 27
27 27 27 27 27 27 27 28 28 29 29 30 30 30 31 30 30 30 30 30 30 30 29 29 30 30 30 30 30 30 29 29 29 29 28 28 27 27 27 27 27 27 27 27 27 27 27 27 27 27 27 27 27 27 27 27 27 28 28 28 28 28 28 28 28 28 28 28 28 28 28 28 28 28 28 28 27 27 27 27 27 27 27 27 26 26
27 27 27 27 27 28 28 28 29 29 29 30 30 30 30 30 30 30 29 29 29 28 29 29 29 29 29 29 29 29 29 29 29 28 28 28 27 27 27 27 27 27 27 27 27 27 27 27 27 28 28 28 28 28 28 28 28 29 29 29 29 29 29 29 28 28 28 28 28 28 28 28 28 28 27 27 27 28 28 28 27 27 27 27 26 26
27 27 27 28 28 28 28 29 29 30 30 30 30 30 30 30 29 29 29 28 28 28 28 28 28 28 28 28 28 28 28 28 28 28 28 27 27 27 27 27 27 27 27 27 27 27 27 27 27 28 28 28 28 28 29 29 29 29 29 29 30 30 30 29 28 28 28 28 27 27 28 28 28 28 28 28 28 28 28 28 28 28 27 27 26 26
27 28 28 28 28 28 28 29 29 30 30 30 30 30 30 29 29 28 28 28 28 28 28 28 28 28 28 28 28 27 27 27 27 27 27 27 27 27 27 27 27 27 27 27 27 27 27 27 28 28 28 28 28 29 29 29 30 30 30 30 30 30 29 29 28 28 28 28 28 28 28 28 28 28 28 28 28 28 29 28 28 28 28 27 27 26
27 28 28 28 28 28 29 29 29 30 30 30 30 30 29 29 29 28 28 28 28 28 28 28 28 28 27 27 27 27 26 26 26 26 26 26 26 26 26 26 27 27 27 27 27 27 27 28 28 28 28 28 29 29 30 30 30 30 30 30 30 30 29 29 29 28 28 28 28 28 28 28 28 28 28 28 28 28 28 28 28 28 28 28 27 27
28 28 28 28 28 28 29 29 30 30 30 30 30 29 29 29 28 28 28 28 28 28 28 28 27 27 27 26 26 26 26 25 25 25 25 26 26 26 26 26 26 26 26 27 27 27 27 28 28 28 28 29 29 30 30 30 30 30 30 30 30 30 30 29 29 29 29 28 28 28 28 28 29 29 29 29 29 28 28 28 28 28 27 27 27 27
28 28 28 28 28 28 29 29 30 30 30 30 30 29 29 28 28 28 28 28 28 28 28 27 27 26 26 26 26 25 25 25 25 25 24 25 25 25 26 26 26 26 26 27 27 28 28 28 28 29 29 29 30 30 30 30 30 30 30 30 29 29 29 29 29 29 29 29 29 29 29 29 29 29 29 29 29 29 28 28 28 28 27 27 27 27
27 28 28 28 28 29 29 30 30 30 30 30 29 29 29 28 28 28 28 28 28 28 27 27 26 26 26 25 25 25 25 25 25 24 24 24 24 25 25 26 26 27 27 27 28 28 28 29 29 29 29 30 30 30 30 30 30 30 30 30 29 29 29 29 29 29 29 29 29 29 29 29 30 30 30 30 30 29 29 28 28 28 27 27 27 27
27 28 28 28 29 29 30 30 30 30 30 29 29 29 29 28 28 28 28 28 28 27 27 26 26 25 25 25 25 25 25 25 25 25 24 24 24 25 25 26 26 27 27 28 28 29 29 29 29 29 29 30 30 30 30 30 29 29 29 29 29 29 30 30 30 30 30 30 30 30 30 30 30 30 30 30 30 30 29 28 28 27 28 27 27 27
27 28 28 28 29 29 30 30 30 30 29 29 29 29 28 28 28 28 28 28 28 27 27 26 26 25 25 25 25 25 24 24 24 24 25 25 25 25 25 26 26 27 27 28 28 29 29 29 30 30 29 29 30 30 30 30 29 29 29 29 30 30 30 30 30 30 30 30 30 30 30 30 30 30 30 30 30 30 30 29 28 28 28 28 28 27
27 28 28 28 29 29 30 30 30 29 29 29 29 29 28 28 28 27 27 27 27 27 26 26 26 25 25 25 25 24 24 24 24 24 25 25 25 25 26 26 26 27 27 27 27 28 28 28 29 29 29 29 29 29 29 30 29 29 29 30 30 30 30 31 31 30 30 30 31 30 30 30 30 30 30 30 31 31 30 30 29 28 28 27 27 27
28 28 28 29 29 29 29 30 29 29 29 29 29 28 28 28 27 27 27 27 27 26 26 26 25 25 25 25 25 24 24 24 24 25 25 25 25 26 26 26 26 27 27 27 27 27 27 27 28 28 28 28 29 29 29 29 29 29 30 30 30 30 30 31 31 31 31 31 31 31 31 31 31 30 30 30 31 31 31 30 29 28 27 27 27 26
Wind_Direction
281 277 272 266 263 263 265 268 274 278 278 271 262 256 253 253 253 254 255 257 260 263 265 267 267 266 265 265 265 267 269 271 273 274 275 276 277 277 278 278 278 278 277 277 277 277 277 277 277 277 277 277 277 277 277 277 277 277 277 277 277 277 277 277 277 277 277 277 277 277 277 276 276 276 276 275 275 275 275 275 274 274 273 273 273 273
282 279 275 272 269 267 266 266 268 273 278 278 272 265 259 257 256 257 258 260 262 264 266 266 266 266 265 266 267 269 271 273 274 275 275 276 277 277 278 278 278 278 277 277 277 278 278 278 278 278 279 279 279 278 278 278 277 277 277 277 276 276 276 276 277 277 277 277 277 276 276 276 276 276 276 275 275 275 275 274 274 274 273 273 273 273
283 281 278 276 273 271 269 266 266 269 274 277 276 272 266 264 263 263 264 265 266 266 266 266 266 266 267 268 270 271 272 273 274 275 275 276 277 278 278 279 278 278 278 278 279 279 279 279 279 280 280 280 279 279 278 277 277 277 277 277 277 277 277 277 277 277 277 277 277 277 277 277 277 276 276 276 276 275 275 275 274 274 274 273 273 273
284 282 280 278 277 274 272 269 267 268 271 274 275 274 270 269 268 267 267 267 267 267 267 267 268 268 269 271 272 273 273 273 274 274 275 276 278 279 280 280 279 279 279 279 279 280 280 280 280 280 279 279 278 278 277 277 277 277 278 278 278 278 278 278 278 278 279 279 279 278 278 278 277 277 277 276 276 276 275 275 275 274 274 273 273 273
285 283 282 280 278 277 275 272 270 269 270 272 274 274 273 271 269 268 267 267 267 268 268 269 270 271 272 273 273 274 274 274 274 275 276 278 280 281 282 281 281 280 279 279 279 279 279 279 279 279 278 278 278 278 278 278 279 279 279 279 279 279 279 279 279 279 279 279 279 279 279 278 278 277 277 277 277 276 276 276 275 275 274 274 274 273
285 284 282 281 279 278 276 274 272 270 270 271 272 273 272 271 270 269 268 268 268 268 269 270 271 272 273 274 274 274 274 274 275 276 278 280 282 283 283 283 282 280 279 278 278 278 278 278 278 278 278 279 279 279 279 279 280 280 280 280 280 280 280 280 280 280 280 280 279 279 279 278 278 278 278 277 277 277 277 276 276 276 275 275 274 274
285 284 282 281 279 278 276 274 272 271 269 269 270 270 270 270 269 269 268 268 269 269 270 271 273 274 274 274 274 274 274 275 276 278 280 282 283 284 284 284 283 281 280 279 278 278 278 278 279 279 279 279 279 279 280 280 280 280 280 280 280 280 281 280 280 280 280 280 279 279 279 279 279 278 278 278 278 278 277 277 277 276 276 276 275 275
285 284 283 281 280 278 275 272 270 268 267 267 267 268 269 270 270 270 270 270 271 272 273 274 275 275 275 274 274 274 275 277 279 281 282 283 284 284 284 284 283 282 281 280 280 279 279 279 279 279 279 280 280 280 280 280 280 281 281 281 281 281 281 281 281 281 280 280 280 280 279 279 279 279 279 279 279 278 278 278 277 277 277 276 276 276
285 283 283 282 280 277 274 271 268 266 266 266 268 269 270 272 273 274 274 274 274 275 275 276 276 276 275 275 276 277 278 280 282 283 284 284 285 285 284 284 283 283 282 281 280 280 280 280 280 280 280 280 280 280 280 281 281 281 281 281 281 281 281 281 281 281 281 281 280 280 280 280 280 280 280 280 279 279 279 278 278 278 277 277 276 276
285 283 283 283 283 281 278 275 273 272 271 272 273 274 276 276 277 278 278 278 278 278 278 278 278 278 278 278 279 280 281 283 283 284 285 285 285 285 284 284 283 283 282 282 281 281 281 281 281 281 281 281 281 281 281 281 282 282 282 282 282 282 282 281 281 281 281 281 281 281 281 281 281 280 280 280 280 279 279 279 278 278 278 277 277 276
285 284 284 284 284 284 283 281 281 280 280 279 280 280 280 280 280 280 280 280 281 281 281 280 280 280 281 281 282 282 283 284 284 285 285 285 285 285 284 284 283 283 283 282 282 282 282 282 282 282 282 281 281 281 281 282 282 282 282 282 282 282 282 282 282 282 282 282 282 281 281 281 281 280 280 280 280 280 279 279 279 278 278 277 277 276
285 284 284 285 285 285 285 285 285 285 284 283 282 281 281 281 281 281 281 282 282 282 282 282 282 281 282 282 283 284 284 284 285 285 286 286 286 286 285 284 284 284 283 283 283 283 283 282 282 282 281 281 281 281 281 282 282 282 282 282 282 282 282 282 282 282 282 282 282 281 281 281 281 281 280 280 280 280 280 279 279 279 278 278 277 277
288 287 286 286 286 286 286 286 286 285 284 283 282 282 282 283 283 282 282 283 283 283 283 283 283 283 283 283 284 285 285 286 286 287 287 287 287 286 286 285 284 284 284 283 283 283 283 282 282 281 281 281 281 281 281 281 281 281 281 282 282 282 282 282 282 282 282 282 282 282 282 281 281 281 281 281 281 281 280 280 280 279 279 278 278 277
295 293 292 290 289 288 287 287 286 286 285 285 284 285 285 286 285 284 284 284 284 284 284 284 284 284 285 285 286 286 287 287 288 288 288 288 287 287 286 285 284 283 283 283 283 283 282 282 281 281 280 280 280 280 280 281 281 281 281 282 282 282 282 282 282 282 283 282 282 283 283 283 283 283 282 282 282 282 281 281 281 280 279 279 278 277
304 301 298 296 294 292 291 290 289 289 288 288 288 288 288 287 286 285 285 284 285 285 285 286 286 286 286 286 287 287 288 288 288 288 288 287 287 286 285 284 283 283 283 282 282 282 282 281 281 280 280 280 280 280 280 281 281 281 282 282 283 283 283 283 283 283 283 284 284 284 284 284 284 284 283 283 283 282 282 281 281 280 279 279 278 278
308 305 302 299 297 296 294 293 292 292 291 290 290 289 288 287 287 286 286 286 286 287 287 287 288 288 288 288 288 288 288 288 288 288 288 287 286 285 285 284 283 283 282 282 282 282 281 281 280 280 280 280 280 280 281 281 282 282 283 283 283 284 284 284 284 285 285 285 285 285 285 285 284 284 284 283 283 282 282 281 280 280 279 279 278 277
307 304 301 299 298 297 296 295 294 292 292 291 290 290 289 288 288 287 287 287 287 288 288 288 288 288 288 288 288 288 288 289 289 288 288 286 285 285 284 284 283 283 283 282 282 281 281 281 281 281 281 281 281 281 282 282 283 283 284 284 284 285 285 285 286 286 286 286 286 286 286 285 285 284 284 283 282 282 281 281 280 279 279 278 278 277
304 302 300 299 297 296 295 294 293 293 292 291 291 290 290 289 289 288 288 288 288 288 288 288 288 288 288 288 288 288 289 289 289 289 288 286 285 285 284 284 283 283 283 282 282 282 281 281 281 282 282 282 282 283 283 283 284 284 284 285 285 286 286 286 287 287 287 287 287 287 286 286 285 284 284 283 282 282 281 280 280 279 278 278 277 277
302 300 299 298 297 296 295 294 293 293 292 291 291 291 290 290 290 289 289 289 289 289 289 289 289 288 288 288 288 289 290 290 290 289 288 286 285 285 285 284 283 283 283 282 282 282 282 282 282 283 283 283 283 283 284 284 284 285 285 285 286 286 287 287 287 288 288 288 287 287 287 286 285 285 284 283 283 282 281 280 280 279 278 278 277 277
300 299 298 297 296 295 295 294 293 292 292 292 291 291 291 291 290 290 290 290 290 290 290 289 289 289 289 289 289 290 291 291 291 290 288 286 285 285 285 284 284 283 283 283 283 283 283 283 283 284 284 284 284 284 284 285 285 285 286 286 286 287 287 288 288 288 288 288 288 288 287 287 286 286 285 284 283 282 282 281 280 279 278 278 277 277
299 298 297 296 296 295 295 294 294 293 293 293 293 293 292 292 292 292 291 292 292 291 291 291 290 290 290 290 290 291 292 292 291 290 289 286 285 285 286 285 284 284 283 283 284 284 284 284 284 285 285 285 284 285 285 285 285 286 286 287 287 287 288 288 288 289 289 289 288 288 288 288 287 287 286 285 284 283 283 282 281 280 279 278 278 277
299 298 297 297 296 296 296 295 295 294 294 294 294 294 293 293 293 293 293 293 293 292 292 292 291 291 291 291 291 292 293 292 291 290 289 287 286 285 287 286 286 285 284 285 285 286 286 285 285 286 286 285 285 285 285 285 286 286 287 287 287 288 288 288 289 289 289 289 289 289 289 288 288 287 287 286 285 285 284 283 282 282 281 280 279 278
301 300 299 299 298 298 297 297 296 296 295 295 295 295 295 295 294 294 294 293 293 293 293 293 293 293 293 292 292 292 292 292 291 290 289 287 286 287 288 288 287 287 286 286 287 287 287 286 286 286 286 286 286 286 286 286 286 286 286 287 287 288 288 289 289 289 290 290 290 290 290 289 289 288 288 287 287 286 285 285 284 283 282 281 280 279
303 303 302 301 301 300 300 300 299 298 297 297 297 297 297 297 296 296 295 295 294 294 294 295 295 294 294 293 293 292 292 292 291 290 289 288 287 288 289 290 289 288 287 287 288 288 288 287 287 287 287 287 286 286 286 286 286 286 286 286 287 288 288 289 289 290 290 290 290 290 290 290 289 289 289 288 288 288 287 286 286 285 284 282 281 280
306 306 305 305 304 303 302 302 301 300 299 299 299 299 299 299 298 298 297 297 297 296 296 296 295 295 294 293 293 292 292 292 291 291 290 289 289 289 290 290 290 289 288 289 289 289 288 288 288 288 287 286 286 285 285 285 285 285 285 286 287 288 289 289 290 291 291 291 291 291 291 290 290 290 290 290 289 289 288 288 287 286 284 283 282 280
310 310 309 308 307 306 306 305 305 304 303 302 301 300 300 300 300 300 299 298 297 297 297 297 296 295 294 293 292 292 292 292 291 291 290 290 290 290 290 291 291 290 289 289 289 289 289 288 288 288 287 286 285 284 284 284 284 284 285 286 287 288 289 290 291 291 291 291 291 291 291 291 291 291 291 291 290 290 289 289 288 287 285 284 283 281
312 311 311 310 309 308 307 306 305 304 304 303 302 302 301 301 301 300 299 298 298 298 297 297 296 295 294 293 292 292 292 292 292 291 290 290 289 289 290 290 291 290 290 289 289 289 288 287 287 287 286 285 284 283 283 283 284 284 285 286 288 289 290 291 292 292 292 292 292 292 291 291 291 291 291 291 291 291 290 290 289 288 286 285 284 282
311 310 310 309 308 307 307 306 305 304 303 303 303 302 302 301 300 300 298 298 298 298 297 296 295 294 294 294 293 292 292 292 292 291 291 290 289 288 289 290 290 290 290 290 289 288 287 286 286 285 284 283 283 283 283 283 284 285 286 288 289 290 291 292 292 292 292 292 292 292 292 292 292 292 292 292 292 291 291 290 289 288 287 286 284 283
310 309 309 308 308 307 307 306 305 304 304 303 303 303 302 301 300 299 298 298 298 297 296 295 294 294 294 293 293 293 292 292 292 292 291 290 289 288 289 289 290 290 290 290 289 287 286 285 284 283 283 282 282 282 283 284 285 286 288 289 290 291 292 292 292 293 292 292 292 292 292 292 292 292 292 293 292 292 292 291 290 289 287 286 285 283
309 308 308 308 308 307 307 306 306 305 304 304 304 303 302 301 300 299 298 298 297 296 295 294 294 293 293 293 293 293 293 293 292 292 291 290 289 288 289 289 289 289 289 289 288 287 285 284 283 281 281 281 281 282 283 285 286 287 288 289 290 291 292 292 293 293 293 293 293 293 293 293 293 293 293 293 293 293 292 291 290 289 288 286 285 283
308 308 308 307 307 307 307 307 306 305 305 305 304 303 302 301 300 299 298 297 296 295 294 294 293 293 292 292 293 293 292 292 292 291 291 289 288 288 288 288 288 287 287 287 286 285 285 283 282 280 280 281 281 282 284 285 286 287 288 289 290 290 291 292 293 293 294 294 294 294 294 294 294 294 294 294 294 293 293 292 291 289 288 286 285 283
309 308 308 307 307 307 307 307 306 305 305 305 304 304 303 301 300 298 297 297 296 295 294 293 292 292 291 291 291 291 291 291 291 290 290 289 288 287 287 287 287 286 286 285 284 283 282 282 281 281 281 282 282 283 284 285 286 287 288 289 290 291 292 293 293 294 294 294 294 294 294 294 294 294 294 294 294 294 293 292 291 290 288 287 285 284
309 308 308 308 307 307 307 306 306 305 305 305 304 304 303 302 300 299 297 296 295 295 294 293 292 292 291 291 290 289 290 290 290 289 289 288 287 287 286 286 286 285 285 284 282 281 280 280 281 282 282 282 282 283 284 285 286 287 288 289 290 291 292 293 294 294 294 295 295 295 294 294 294 294 294 294 294 294 293 293 292 290 289 288 286 284
309 309 308 308 308 307 307 306 306 305 305 305 304 304 303 303 301 300 298 296 295 294 294 293 292 292 291 291 290 289 289 289 289 289 288 287 286 286 286 285 285 284 284 283 282 281 280 280 281 282 282 282 283 283 284 285 286 287 288 289 290 291 292 293 294 294 294 295 295 294 294 294 294 294 294 294 294 294 294 293 292 291 290 288 287 285
310 309 309 308 308 307 307 307 306 306 305 305 305 304 304 303 302 301 299 297 296 295 294 293 292 291 291 290 290 289 289 289 289 288 287 286 285 285 284 284 283 283 282 282 281 281 280 280 281 281 282 283 283 284 285 286 287 288 289 289 290 291 292 293 293 294 294 294 294 294 294 294 294 294 294 295 295 294 294 293 293 291 290 289 287 285
310 310 309 309 308 308 307 307 306 306 306 305 305 305 304 304 303 301 300 298 297 296 294 293 292 291 291 290 289 289 289 289 288 287 286 285 284 283 282 282 281 281 281 280 280 280 280 280 281 281 282 283 284 285 285 286 287 288 289 290 290 291 292 292 293 293 294 294 294 294 294 294 294 294 294 295 295 295 294 293 293 292 290 289 287 285
310 309 309 309 308 308 308 307 307 306 306 306 305 305 304 304 303 301 300 299 297 296 295 294 293 292 291 290 289 289 288 288 287 286 285 283 282 281 281 280 280 279 279 279 279 279 280 280 281 281 282 282 283 285 286 287 288 289 289 290 291 291 292 292 293 293 293 294 294 294 294 294 294 294 294 295 295 295 294 293 293 292 290 289 287 285
310 310 309 309 309 308 308 308 307 307 306 306 306 305 304 303 303 302 301 299 298 297 295 294 293 292 291 290 289 289 288 287 286 285 284 282 281 280 279 279 279 278 278 278 278 279 279 280 280 281 282 282 283 284 286 288 289 289 289 290 291 291 292 292 293 293 293 294 294 294 294 294 294 294 294 295 295 294 294 293 292 292 290 289 287 285
310 310 309 309 309 309 309 308 308 307 307 307 306 305 305 304 303 302 301 300 299 297 296 295 294 293 292 291 290 289 288 287 285 284 283 281 279 279 278 278 278 278 278 278 278 278 278 279 280 281 282 283 284 285 286 287 288 289 290 290 291 291 292 293 293 293 293 294 294 294 294 294 294 294 294 294 294 294 294 293 292 291 290 289 288 286
311 310 310 310 309 309 309 309 308 308 308 307 307 307 306 305 304 303 301 300 299 298 297 296 295 294 293 292 290 289 288 286 285 283 281 280 278 278 277 277 277 278 278 277 277 278 278 279 280 280 281 283 284 285 286 287 288 289 290 290 291 291 292 293 293 293 293 293 293 294 294 294 294 294 294 294 294 294 294 293 292 291 290 289 288 287
311 311 310 310 310 310 310 310 309 309 309 309 308 308 307 306 305 303 302 301 300 299 298 298 297 295 294 293 291 290 288 286 285 283 281 279 278 277 276 277 277 277 277 278 278 278 278 279 280 281 282 283 284 285 286 287 288 289 289 290 291 291 292 293 293 293 293 293 293 293 293 293 294 294 294 294 294 293 293 293 292 291 290 289 288 287
311 311 311 311 311 311 311 311 310 310 310 310 309 308 308 306 305 304 303 302 301 301 300 299 298 296 295 293 292 290 288 286 285 283 281 279 278 277 276 276 277 277 278 278 279 279 279 280 281 282 283 284 285 286 286 287 288 288 289 289 290 291 292 292 292 292 292 293 293 293 293 293 293 294 294 294 293 293 293 292 291 291 290 289 288 286
311 311 311 311 311 311 311 311 311 311 311 311 310 309 308 307 306 305 304 303 302 301 301 300 298 297 295 294 292 291 289 287 285 283 282 280 278 277 277 277 277 278 279 279 280 280 281 281 282 283 284 285 285 286 287 287 288 288 289 289 290 291 291 292 292 292 292 292 292 293 293 293 293 294 294 294 293 293 293 292 291 290 289 288 288 286
311 311 311 312 312 312 312 312 312 312 312 311 310 309 308 307 306 305 304 304 303 303 302 301 300 298 296 294 293 292 290 288 286 285 283 281 280 278 278 277 278 278 279 280 280 281 282 282 283 284 284 285 286 286 287 287 288 289 289 289 289 290 290 291 292 292 292 292 292 293 293 293 294 294 294 294 293 293 293 293 292 291 289 288 287 287
312 312 312 312 313 313 313 313 313 313 312 312 311 310 309 307 306 306 305 305 304 304 303 302 301 299 297 295 294 292 291 289 287 286 284 283 281 280 279 279 279 279 280 280 281 282 282 283 284 285 285 286 286 286 287 288 288 289 289 289 289 289 289 290 291 292 292 292 293 293 293 294 294 294 294 294 294 294 294 293 292 291 290 289 288 287
312 312 313 313 313 313 313 313 313 313 313 312 311 310 309 308 307 306 306 306 305 305 304 303 302 299 297 296 294 293 291 289 288 286 285 283 282 281 281 280 280 280 281 281 282 282 283 283 284 285 286 287 287 287 287 288 288 289 289 289 289 290 290 290 291 291 292 292 292 293 293 294 294 294 294 294 294 294 294 293 292 291 290 288 287 286
313 313 313 313 314 314 314 314 314 314 313 312 311 310 309 308 308 307 307 307 306 306 305 304 302 300 297 296 294 292 290 289 287 286 285 284 283 283 282 282 282 281 282 282 283 283 284 284 285 286 286 287 287 288 288 288 288 289 289 289 290 290 290 290 291 291 291 292 292 293 293 294 294 293 293 293 293 293 293 292 291 289 288 287 285 284
313 313 314 314 314 314 314 315 314 314 313 312 311 311 310 309 309 308 308 308 307 307 306 305 303 300 298 296 294 292 290 288 287 286 286 285 284 284 284 284 284 284 284 284 284 284 285 285 285 286 286 286 287 288 288 288 288 288 289 289 289 290 290 290 291 291 291 291 292 292 293 293 293 292 293 293 292 292 292 291 289 288 286 285 284 283
314 314 314 315 315 315 315 315 315 314 314 313 312 311 310 310 309 309 309 309 308 307 306 305 303 301 299 296 294 292 290 288 287 286 286 285 285 286 286 286 286 287 286 286 286 286 286 286 286 286 286 286 286 287 288 288 288 289 289 289 289 289 290 290 290 291 291 291 292 292 292 292 291 291 291 291 291 291 290 289 288 287 286 285 283 282
314 315 315 315 316 316 316 316 315 315 314 313 312 311 310 310 310 310 310 309 309 308 307 306 304 302 299 297 295 292 290 288 287 286 286 286 287 287 287 288 288 288 288 288 288 288 289 289 288 287 286 286 286 286 287 288 289 289 289 289 289 289 289 290 290 291 291 291 291 292 291 291 291 290 290 290 290 290 290 289 288 287 286 285 284 282
315 315 316 316 316 316 316 316 315 315 313 312 311 311 310 310 310 310 310 310 309 309 308 306 305 303 300 298 295 293 291 289 288 287 287 287 288 288 288 288 289 289 289 289 290 290 290 290 290 290 289 287 286 286 287 288 289 289 289 289 289 289 290 290 290 290 291 291 291 291 291 290 290 290 289 289 289 290 290 289 288 286 286 285 284 283